Time,TemperatureF,DewpointF,PressureIn,WindDirection,WindDirectionDegrees,WindSpeedMPH,WindSpeedGustMPH,Humidity,HourlyPrecipIn,Conditions,Clouds,dailyrainin,SoftwareType,DateUTC
2013-04-25 00:01:00,56.0,52.2,29.87,West,278,1.0,2.0,87,0.00,,---,0.00,VWS V13.01,2013-04-25 04:01:00,
2013-04-25 00:06:00,55.9,52.4,29.87,SW,229,1.0,1.0,88,0.00,,---,0.00,VWS V13.01,2013-04-25 04:06:00,
2013-04-25 00:11:00,55.8,52.3,29.89,NW,318,0.0,4.0,88,0.00,,---,0.00,VWS V13.01,2013-04-25 04:11:00,
2013-04-25 00:16:00,55.7,52.2,29.89,West,277,0.0,0.0,88,0.00,,---,0.00,VWS V13.01,2013-04-25 04:16:00,
2013-04-25 00:21:00,55.6,52.1,29.89,West,279,0.0,0.0,88,0.00,,---,0.00,VWS V13.01,2013-04-25 04:21:00,
2013-04-25 00:26:00,55.6,52.1,29.90,NNW,348,0.0,1.0,88,0.00,,---,0.00,VWS V13.01,2013-04-25 04:26:00,
2013-04-25 00:31:00,55.6,52.1,29.89,WSW,242,3.0,6.0,88,0.00,,---,0.00,VWS V13.01,2013-04-25 04:31:00,
2013-04-25 00:36:00,55.5,52.3,29.89,SW,236,2.0,2.0,89,0.00,,---,0.00,VWS V13.01,2013-04-25 04:36:00,
2013-04-25 00:41:00,55.5,52.3,29.89,WSW,239,0.0,1.0,89,0.00,,---,0.00,VWS V13.01,2013-04-25 04:41:00,
2013-04-25 00:46:00,55.5,52.3,29.89,WSW,240,0.0,2.0,89,0.00,,---,0.00,VWS V13.01,2013-04-25 04:46:00,
2013-04-25 00:51:00,55.5,52.3,29.90,WSW,240,0.0,2.0,89,0.00,,---,0.00,VWS V13.01,2013-04-25 04:51:00,
2013-04-25 00:56:00,55.4,52.2,29.89,SW,227,2.0,4.0,89,0.00,,---,0.00,VWS V13.01,2013-04-25 04:56:00,
2013-04-25 01:01:00,55.4,52.2,29.89,SSW,211,3.0,4.0,89,0.00,,---,0.00,VWS V13.01,2013-04-25 05:01:00,
2013-04-25 01:06:00,55.4,52.2,29.89,SW,214,6.0,6.0,89,0.00,,---,0.00,VWS V13.01,2013-04-25 05:06:00,
2013-04-25 01:11:00,55.3,52.1,29.89,SSW,209,3.0,4.0,89,0.00,,---,0.00,VWS V13.01,2013-04-25 05:11:00,
2013-04-25 01:16:00,55.3,52.1,29.89,SSW,209,0.0,0.0,89,0.00,,---,0.00,VWS V13.01,2013-04-25 05:16:00,
2013-04-25 01:21:00,55.2,52.0,29.89,SSW,209,4.0,5.0,89,0.00,,---,0.00,VWS V13.01,2013-04-25 05:21:00,
2013-04-25 01:26:00,55.2,52.0,29.89,SSW,210,0.0,0.0,89,0.00,,---,0.00,VWS V13.01,2013-04-25 05:26:00,
2013-04-25 01:31:00,55.1,52.2,29.89,SSW,210,4.0,7.0,90,0.00,,---,0.00,VWS V13.01,2013-04-25 05:31:00,
2013-04-25 01:36:00,55.1,52.2,29.90,SSW,210,0.0,0.0,90,0.00,,---,0.00,VWS V13.01,2013-04-25 05:36:00,
2013-04-25 01:41:00,55.1,52.2,29.90,SSW,210,0.0,0.0,90,0.00,,---,0.00,VWS V13.01,2013-04-25 05:41:00,
2013-04-25 01:46:00,55.1,52.2,29.91,SSW,210,0.0,3.0,90,0.00,,---,0.00,VWS V13.01,2013-04-25 05:46:00,
2013-04-25 01:51:00,55.1,52.2,29.91,SSW,210,0.0,1.0,90,0.00,,---,0.00,VWS V13.01,2013-04-25 05:51:00,
2013-04-25 01:56:00,55.2,52.3,29.91,SSW,210,0.0,3.0,90,0.00,,---,0.00,VWS V13.01,2013-04-25 05:56:00,
2013-04-25 02:01:00,55.2,52.3,29.92,SSW,210,0.0,0.0,90,0.00,,---,0.00,VWS V13.01,2013-04-25 06:01:00,
2013-04-25 02:06:00,55.2,52.3,29.92,West,265,0.0,0.0,90,0.00,,---,0.00,VWS V13.01,2013-04-25 06:06:00,
2013-04-25 02:11:00,55.3,52.4,29.92,West,265,0.0,0.0,90,0.00,,---,0.00,VWS V13.01,2013-04-25 06:11:00,
2013-04-25 02:16:00,55.4,52.5,29.92,West,274,1.0,2.0,90,0.00,,---,0.00,VWS V13.01,2013-04-25 06:16:00,
2013-04-25 02:21:00,55.5,52.6,29.92,WSW,247,4.0,4.0,90,0.00,,---,0.00,VWS V13.01,2013-04-25 06:21:00,
2013-04-25 02:26:00,55.6,52.7,29.91,WSW,253,0.0,0.0,90,0.00,,---,0.00,VWS V13.01,2013-04-25 06:26:00,
2013-04-25 02:31:00,55.7,52.8,29.91,WSW,250,2.0,4.0,90,0.00,,---,0.00,VWS V13.01,2013-04-25 06:31:00,
2013-04-25 02:36:00,55.7,52.8,29.92,WNW,284,0.0,3.0,90,0.00,,---,0.00,VWS V13.01,2013-04-25 06:36:00,
2013-04-25 02:41:00,55.8,52.6,29.91,West,264,2.0,2.0,89,0.00,,---,0.00,VWS V13.01,2013-04-25 06:41:00,
2013-04-25 02:46:00,55.9,52.4,29.92,WNW,303,0.0,0.0,88,0.00,,---,0.00,VWS V13.01,2013-04-25 06:46:00,
2013-04-25 02:51:00,56.0,51.9,29.92,NW,320,2.0,10.0,86,0.00,,---,0.00,VWS V13.01,2013-04-25 06:51:00,
2013-04-25 02:56:00,56.3,49.9,29.92,WSW,253,2.0,11.0,79,0.00,,---,0.00,VWS V13.01,2013-04-25 06:56:00,
2013-04-25 03:01:00,56.8,48.6,29.93,NNW,340,5.0,13.0,74,0.00,,---,0.00,VWS V13.01,2013-04-25 07:01:00,
2013-04-25 03:06:00,57.4,48.8,29.94,WNW,296,10.0,10.0,73,0.00,,---,0.00,VWS V13.01,2013-04-25 07:06:00,
2013-04-25 03:11:00,57.8,48.8,29.94,North,355,11.0,16.0,72,0.00,,---,0.00,VWS V13.01,2013-04-25 07:11:00,
2013-04-25 03:16:00,58.0,47.9,29.95,NW,323,3.0,17.0,69,0.00,,---,0.00,VWS V13.01,2013-04-25 07:16:00,
2013-04-25 03:21:00,58.0,47.1,29.95,NW,321,4.0,10.0,67,0.00,,---,0.00,VWS V13.01,2013-04-25 07:21:00,
2013-04-25 03:26:00,57.7,46.0,29.95,WNW,300,10.0,12.0,65,0.00,,---,0.00,VWS V13.01,2013-04-25 07:26:00,
2013-04-25 03:31:00,57.4,44.9,29.96,WNW,303,12.0,17.0,63,0.00,,---,0.00,VWS V13.01,2013-04-25 07:31:00,
2013-04-25 03:36:00,56.9,44.0,29.96,NNE,12,7.0,14.0,62,0.00,,---,0.00,VWS V13.01,2013-04-25 07:36:00,
2013-04-25 03:41:00,56.5,43.7,29.96,WNW,301,8.0,11.0,62,0.00,,---,0.00,VWS V13.01,2013-04-25 07:41:00,
2013-04-25 03:46:00,56.0,41.5,29.97,WNW,302,4.0,17.0,58,0.00,,---,0.00,VWS V13.01,2013-04-25 07:46:00,
2013-04-25 03:51:00,55.2,40.7,29.97,NNW,333,12.0,16.0,58,0.00,,---,0.00,VWS V13.01,2013-04-25 07:51:00,
2013-04-25 03:56:00,54.6,40.6,29.97,NW,309,16.0,16.0,59,0.00,,---,0.00,VWS V13.01,2013-04-25 07:56:00,
2013-04-25 04:01:00,54.2,40.2,29.97,WNW,296,3.0,5.0,59,0.00,,---,0.00,VWS V13.01,2013-04-25 08:01:00,
2013-04-25 04:06:00,53.8,40.3,29.98,West,279,4.0,11.0,60,0.00,,---,0.00,VWS V13.01,2013-04-25 08:06:00,
2013-04-25 04:11:00,53.3,39.8,29.99,WNW,303,4.0,15.0,60,0.00,,---,0.00,VWS V13.01,2013-04-25 08:11:00,
2013-04-25 04:16:00,53.0,39.9,29.99,WNW,292,7.0,21.0,61,0.00,,---,0.00,VWS V13.01,2013-04-25 08:16:00,
2013-04-25 04:21:00,52.7,40.1,29.99,West,275,7.0,12.0,62,0.00,,---,0.00,VWS V13.01,2013-04-25 08:21:00,
2013-04-25 04:26:00,52.4,39.8,29.99,NNW,328,6.0,12.0,62,0.00,,---,0.00,VWS V13.01,2013-04-25 08:26:00,
2013-04-25 04:31:00,52.2,39.6,29.99,NW,315,3.0,3.0,62,0.00,,---,0.00,VWS V13.01,2013-04-25 08:31:00,
2013-04-25 04:36:00,51.9,39.3,29.99,NW,315,2.0,9.0,62,0.00,,---,0.00,VWS V13.01,2013-04-25 08:36:00,
2013-04-25 04:41:00,51.7,39.5,30.00,West,277,11.0,11.0,63,0.00,,---,0.00,VWS V13.01,2013-04-25 08:41:00,
2013-04-25 04:46:00,51.5,39.3,30.00,NW,306,5.0,8.0,63,0.00,,---,0.00,VWS V13.01,2013-04-25 08:46:00,
2013-04-25 04:51:00,51.4,39.2,30.01,NW,304,6.0,13.0,63,0.00,,---,0.00,VWS V13.01,2013-04-25 08:51:00,
2013-04-25 04:55:00,51.3,39.5,30.00,NW,307,4.0,13.0,64,0.00,,---,0.00,VWS V13.01,2013-04-25 08:55:00,
2013-04-25 05:00:00,51.2,39.5,30.01,NW,316,7.0,15.0,64,0.00,,---,0.00,VWS V13.01,2013-04-25 09:00:00,
2013-04-25 05:05:00,51.1,39.4,30.01,WNW,296,14.0,14.0,64,0.00,,---,0.00,VWS V13.01,2013-04-25 09:05:00,
2013-04-25 05:10:00,51.0,39.3,30.01,NW,319,6.0,13.0,64,0.00,,---,0.00,VWS V13.01,2013-04-25 09:10:00,
2013-04-25 05:15:00,50.9,38.8,30.01,NNW,329,7.0,7.0,63,0.00,,---,0.00,VWS V13.01,2013-04-25 09:15:00,
2013-04-25 05:20:00,50.8,38.7,30.03,WNW,300,19.0,19.0,63,0.00,,---,0.00,VWS V13.01,2013-04-25 09:20:00,
2013-04-25 05:25:00,50.7,37.8,30.03,NNW,339,9.0,13.0,61,0.00,,---,0.00,VWS V13.01,2013-04-25 09:25:00,
2013-04-25 05:30:00,50.6,38.1,30.04,NW,305,7.0,17.0,62,0.00,,---,0.00,VWS V13.01,2013-04-25 09:30:00,
2013-04-25 05:35:00,50.3,38.6,30.05,WNW,296,15.0,15.0,64,0.00,,---,0.00,VWS V13.01,2013-04-25 09:35:00,
2013-04-25 05:40:00,49.8,39.7,30.05,NW,321,7.0,16.0,68,0.00,,---,0.00,VWS V13.01,2013-04-25 09:40:00,
2013-04-25 05:45:00,48.7,40.8,30.05,NNW,342,10.0,12.0,74,0.00,,---,0.00,VWS V13.01,2013-04-25 09:45:00,
2013-04-25 05:50:00,47.8,41.0,30.06,WNW,299,6.0,12.0,77,0.00,,---,0.00,VWS V13.01,2013-04-25 09:50:00,
2013-04-25 05:55:00,47.2,41.4,30.06,WNW,296,5.0,9.0,80,0.00,,---,0.00,VWS V13.01,2013-04-25 09:55:00,
2013-04-25 06:00:00,46.8,41.6,30.06,West,279,2.0,5.0,82,0.00,,---,0.00,VWS V13.01,2013-04-25 10:00:00,
2013-04-25 06:05:00,46.5,41.6,30.06,WNW,302,3.0,3.0,83,0.00,,---,0.00,VWS V13.01,2013-04-25 10:05:00,
2013-04-25 06:10:00,46.3,41.4,30.07,WNW,302,0.0,0.0,83,0.00,,---,0.00,VWS V13.01,2013-04-25 10:10:00,
2013-04-25 06:15:00,46.2,41.0,30.08,NW,318,0.0,0.0,82,0.00,,---,0.00,VWS V13.01,2013-04-25 10:15:00,
2013-04-25 06:20:00,46.1,40.9,30.08,WNW,282,2.0,2.0,82,0.00,,---,0.00,VWS V13.01,2013-04-25 10:20:00,
2013-04-25 06:25:00,46.1,40.9,30.09,WNW,291,2.0,7.0,82,0.00,,---,0.00,VWS V13.01,2013-04-25 10:25:00,
2013-04-25 06:30:00,46.1,40.9,30.10,NW,312,2.0,2.0,82,0.00,,---,0.00,VWS V13.01,2013-04-25 10:30:00,
2013-04-25 06:35:00,46.1,40.6,30.10,WNW,296,5.0,5.0,81,0.00,,---,0.00,VWS V13.01,2013-04-25 10:35:00,
2013-04-25 06:40:00,46.2,40.7,30.10,NW,313,2.0,6.0,81,0.00,,---,0.00,VWS V13.01,2013-04-25 10:40:00,
2013-04-25 06:45:00,46.3,40.5,30.09,NW,320,3.0,3.0,80,0.00,,---,0.00,VWS V13.01,2013-04-25 10:45:00,
2013-04-25 06:50:00,46.5,40.3,30.11,NW,304,0.0,0.0,79,0.00,,---,0.00,VWS V13.01,2013-04-25 10:50:00,
2013-04-25 06:55:00,46.6,40.5,30.11,WNW,303,6.0,6.0,79,0.00,,---,0.00,VWS V13.01,2013-04-25 10:55:00,
2013-04-25 07:00:00,46.8,39.7,30.11,NW,311,4.0,7.0,76,0.00,,---,0.00,VWS V13.01,2013-04-25 11:00:00,
2013-04-25 07:05:00,47.0,39.2,30.11,WNW,299,3.0,8.0,74,0.00,,---,0.00,VWS V13.01,2013-04-25 11:05:00,
2013-04-25 07:10:00,47.2,39.7,30.11,WNW,296,5.0,5.0,75,0.00,,---,0.00,VWS V13.01,2013-04-25 11:10:00,
2013-04-25 07:15:00,47.4,39.2,30.12,NW,311,8.0,8.0,73,0.00,,---,0.00,VWS V13.01,2013-04-25 11:15:00,
2013-04-25 07:20:00,47.5,38.9,30.13,NW,315,9.0,11.0,72,0.00,,---,0.00,VWS V13.01,2013-04-25 11:20:00,
2013-04-25 07:25:00,47.6,39.0,30.14,NW,311,0.0,0.0,72,0.00,,---,0.00,VWS V13.01,2013-04-25 11:25:00,
2013-04-25 07:30:00,47.6,39.0,30.14,NW,307,3.0,8.0,72,0.00,,---,0.00,VWS V13.01,2013-04-25 11:30:00,
2013-04-25 07:35:00,47.7,39.1,30.15,NW,306,0.0,0.0,72,0.00,,---,0.00,VWS V13.01,2013-04-25 11:35:00,
2013-04-25 07:40:00,47.8,38.9,30.15,West,271,4.0,6.0,71,0.00,,---,0.00,VWS V13.01,2013-04-25 11:40:00,
2013-04-25 07:45:00,47.9,38.6,30.15,WNW,292,1.0,1.0,70,0.00,,---,0.00,VWS V13.01,2013-04-25 11:45:00,
2013-04-25 07:50:00,48.0,38.7,30.16,NW,317,0.0,0.0,70,0.00,,---,0.00,VWS V13.01,2013-04-25 11:50:00,
2013-04-25 07:55:00,48.1,39.2,30.16,NW,317,5.0,8.0,71,0.00,,---,0.00,VWS V13.01,2013-04-25 11:55:00,
2013-04-25 08:00:00,48.2,38.2,30.15,NNW,346,9.0,10.0,68,0.00,,---,0.00,VWS V13.01,2013-04-25 12:00:00,
2013-04-25 08:05:00,48.3,37.1,30.15,North,360,6.0,10.0,65,0.00,,---,0.00,VWS V13.01,2013-04-25 12:05:00,
2013-04-25 08:10:00,48.3,36.7,30.15,NE,46,5.0,12.0,64,0.00,,---,0.00,VWS V13.01,2013-04-25 12:10:00,
2013-04-25 08:15:00,48.5,37.3,30.16,NNE,22,2.0,6.0,65,0.00,,---,0.00,VWS V13.01,2013-04-25 12:15:00,
2013-04-25 08:20:00,48.4,37.2,30.16,NNE,29,6.0,7.0,65,0.00,,---,0.00,VWS V13.01,2013-04-25 12:20:00,
2013-04-25 08:25:00,48.2,36.2,30.16,NW,318,3.0,3.0,63,0.00,,---,0.00,VWS V13.01,2013-04-25 12:25:00,
2013-04-25 08:30:00,48.2,36.6,30.16,North,360,6.0,6.0,64,0.00,,---,0.00,VWS V13.01,2013-04-25 12:30:00,
2013-04-25 08:35:00,48.1,35.7,30.15,NNW,329,5.0,5.0,62,0.00,,---,0.00,VWS V13.01,2013-04-25 12:35:00,
2013-04-25 08:40:00,48.1,36.1,30.15,North,355,9.0,14.0,63,0.00,,---,0.00,VWS V13.01,2013-04-25 12:40:00,
2013-04-25 08:45:00,48.6,36.2,30.15,NNE,24,5.0,5.0,62,0.00,,---,0.00,VWS V13.01,2013-04-25 12:45:00,
2013-04-25 08:50:00,49.2,37.2,30.15,North,360,6.0,11.0,63,0.00,,---,0.00,VWS V13.01,2013-04-25 12:50:00,
2013-04-25 08:55:00,49.7,36.4,30.16,North,360,9.0,13.0,60,0.00,,---,0.00,VWS V13.01,2013-04-25 12:55:00,
2013-04-25 09:00:00,49.7,36.0,30.16,ENE,63,7.0,11.0,59,0.00,,---,0.00,VWS V13.01,2013-04-25 13:00:00,
2013-04-25 09:05:00,49.9,36.2,30.16,North,10,5.0,5.0,59,0.00,,---,0.00,VWS V13.01,2013-04-25 13:05:00,
2013-04-25 09:10:00,50.2,36.9,30.17,WNW,300,6.0,6.0,60,0.00,,---,0.00,VWS V13.01,2013-04-25 13:10:00,
2013-04-25 09:15:00,50.4,36.2,30.16,WNW,296,12.0,13.0,58,0.00,,---,0.00,VWS V13.01,2013-04-25 13:15:00,
2013-04-25 09:20:00,50.7,36.9,30.16,NE,49,11.0,14.0,59,0.00,,---,0.00,VWS V13.01,2013-04-25 13:20:00,
2013-04-25 09:25:00,50.8,35.7,30.16,WNW,298,10.0,12.0,56,0.00,,---,0.00,VWS V13.01,2013-04-25 13:25:00,
2013-04-25 09:30:00,51.2,35.6,30.16,NW,325,5.0,9.0,55,0.00,,---,0.00,VWS V13.01,2013-04-25 13:30:00,
2013-04-25 09:35:00,51.4,35.8,30.16,NW,321,3.0,7.0,55,0.00,,---,0.00,VWS V13.01,2013-04-25 13:35:00,
2013-04-25 09:40:00,51.5,35.9,30.16,NNW,339,3.0,5.0,55,0.00,,---,0.00,VWS V13.01,2013-04-25 13:40:00,
2013-04-25 09:45:00,51.5,35.9,30.17,NNW,329,10.0,10.0,55,0.00,,---,0.00,VWS V13.01,2013-04-25 13:45:00,
2013-04-25 09:50:00,51.7,35.6,30.16,NNW,338,1.0,3.0,54,0.00,,---,0.00,VWS V13.01,2013-04-25 13:50:00,
2013-04-25 09:55:00,52.0,35.4,30.17,NNE,12,2.0,4.0,53,0.00,,---,0.00,VWS V13.01,2013-04-25 13:55:00,
2013-04-25 10:00:00,52.3,36.2,30.17,NNW,334,5.0,5.0,54,0.00,,---,0.00,VWS V13.01,2013-04-25 14:00:00,
2013-04-25 10:05:00,52.5,34.9,30.17,NE,34,1.0,2.0,51,0.00,,---,0.00,VWS V13.01,2013-04-25 14:05:00,
2013-04-25 10:10:00,52.8,35.7,30.17,NNW,339,7.0,10.0,52,0.00,,---,0.00,VWS V13.01,2013-04-25 14:10:00,
2013-04-25 10:15:00,52.6,35.5,30.17,North,355,6.0,7.0,52,0.00,,---,0.00,VWS V13.01,2013-04-25 14:15:00,
2013-04-25 10:20:00,52.8,36.2,30.17,NW,306,3.0,3.0,53,0.00,,---,0.00,VWS V13.01,2013-04-25 14:20:00,
2013-04-25 10:25:00,53.0,36.3,30.17,North,355,12.0,12.0,53,0.00,,---,0.00,VWS V13.01,2013-04-25 14:25:00,
2013-04-25 10:30:00,53.1,35.0,30.17,NNW,329,6.0,6.0,50,0.00,,---,0.00,VWS V13.01,2013-04-25 14:30:00,
2013-04-25 10:35:00,53.2,35.6,30.17,North,5,5.0,7.0,51,0.00,,---,0.00,VWS V13.01,2013-04-25 14:35:00,
2013-04-25 10:40:00,53.3,35.7,30.17,WNW,284,0.0,0.0,51,0.00,,---,0.00,VWS V13.01,2013-04-25 14:40:00,
2013-04-25 10:45:00,53.7,35.0,30.18,NNE,17,7.0,10.0,49,0.00,,---,0.00,VWS V13.01,2013-04-25 14:45:00,
2013-04-25 10:50:00,54.2,36.5,30.18,NNW,331,2.0,7.0,51,0.00,,---,0.00,VWS V13.01,2013-04-25 14:50:00,
2013-04-25 10:55:00,54.2,36.0,30.18,North,351,6.0,7.0,50,0.00,,---,0.00,VWS V13.01,2013-04-25 14:55:00,
2013-04-25 11:00:00,54.4,36.2,30.18,WNW,298,3.0,7.0,50,0.00,,---,0.00,VWS V13.01,2013-04-25 15:00:00,
2013-04-25 11:05:00,54.6,35.3,30.18,WNW,293,3.0,6.0,48,0.00,,---,0.00,VWS V13.01,2013-04-25 15:05:00,
2013-04-25 11:10:00,55.0,36.7,30.18,NNW,328,7.0,12.0,50,0.00,,---,0.00,VWS V13.01,2013-04-25 15:10:00,
2013-04-25 11:15:00,55.3,36.0,30.18,NNE,17,11.0,11.0,48,0.00,,---,0.00,VWS V13.01,2013-04-25 15:15:00,
2013-04-25 11:20:00,55.4,37.1,30.18,NNW,327,0.0,11.0,50,0.00,,---,0.00,VWS V13.01,2013-04-25 15:20:00,
2013-04-25 11:25:00,55.3,36.0,30.18,North,5,6.0,7.0,48,0.00,,---,0.00,VWS V13.01,2013-04-25 15:25:00,
2013-04-25 11:30:00,55.6,35.7,30.18,NNW,342,5.0,12.0,47,0.00,,---,0.00,VWS V13.01,2013-04-25 15:30:00,
2013-04-25 11:35:00,55.8,36.4,30.18,WNW,295,0.0,7.0,48,0.00,,---,0.00,VWS V13.01,2013-04-25 15:35:00,
2013-04-25 11:40:00,56.3,36.9,30.18,NNW,337,2.0,10.0,48,0.00,,---,0.00,VWS V13.01,2013-04-25 15:40:00,
2013-04-25 11:45:00,56.4,36.4,30.18,NW,308,9.0,10.0,47,0.00,,---,0.00,VWS V13.01,2013-04-25 15:45:00,
2013-04-25 11:50:00,56.8,36.8,30.18,WNW,298,12.0,12.0,47,0.00,,---,0.00,VWS V13.01,2013-04-25 15:50:00,
2013-04-25 11:55:00,57.3,36.2,30.18,NW,319,0.0,4.0,45,0.00,,---,0.00,VWS V13.01,2013-04-25 15:55:00,
2013-04-25 12:00:00,57.6,37.0,30.18,NNW,346,1.0,10.0,46,0.00,,---,0.00,VWS V13.01,2013-04-25 16:00:00,
2013-04-25 12:05:00,58.2,37.5,30.18,WNW,294,0.0,6.0,46,0.00,,---,0.00,VWS V13.01,2013-04-25 16:05:00,
2013-04-25 12:10:00,58.6,37.9,30.18,WNW,302,1.0,9.0,46,0.00,,---,0.00,VWS V13.01,2013-04-25 16:10:00,
2013-04-25 12:15:00,58.7,37.4,30.18,WSW,257,3.0,7.0,45,0.00,,---,0.00,VWS V13.01,2013-04-25 16:15:00,
2013-04-25 12:20:00,58.9,35.9,30.18,North,355,8.0,9.0,42,0.00,,---,0.00,VWS V13.01,2013-04-25 16:20:00,
2013-04-25 12:25:00,58.9,35.9,30.18,WNW,296,0.0,5.0,42,0.00,,---,0.00,VWS V13.01,2013-04-25 16:25:00,
2013-04-25 12:30:00,59.3,37.4,30.18,NNW,333,13.0,13.0,44,0.00,,---,0.00,VWS V13.01,2013-04-25 16:30:00,
2013-04-25 12:35:00,59.7,35.4,30.17,West,265,9.0,9.0,40,0.00,,---,0.00,VWS V13.01,2013-04-25 16:35:00,
2013-04-25 12:40:00,60.0,36.2,30.17,West,265,0.0,1.0,41,0.00,,---,0.00,VWS V13.01,2013-04-25 16:40:00,
2013-04-25 12:45:00,60.4,36.0,30.17,NNE,32,0.0,2.0,40,0.00,,---,0.00,VWS V13.01,2013-04-25 16:45:00,
2013-04-25 12:50:00,60.5,36.1,30.17,West,279,2.0,3.0,40,0.00,,---,0.00,VWS V13.01,2013-04-25 16:50:00,
2013-04-25 12:55:00,60.5,36.1,30.17,West,279,0.0,5.0,40,0.00,,---,0.00,VWS V13.01,2013-04-25 16:55:00,
2013-04-25 13:00:00,59.9,35.5,30.17,NNW,344,0.0,1.0,40,0.00,,---,0.00,VWS V13.01,2013-04-25 17:00:00,
2013-04-25 13:05:00,59.7,36.6,30.17,NW,315,1.0,9.0,42,0.00,,---,0.00,VWS V13.01,2013-04-25 17:05:00,
2013-04-25 13:10:00,59.9,34.9,30.17,NE,56,3.0,4.0,39,0.00,,---,0.00,VWS V13.01,2013-04-25 17:10:00,
2013-04-25 13:15:00,59.9,34.9,30.17,WNW,292,0.0,11.0,39,0.00,,---,0.00,VWS V13.01,2013-04-25 17:15:00,
2013-04-25 13:20:00,60.1,35.1,30.17,South,175,5.0,5.0,39,0.00,,---,0.00,VWS V13.01,2013-04-25 17:20:00,
2013-04-25 13:25:00,60.5,36.1,30.16,West,270,1.0,3.0,40,0.00,,---,0.00,VWS V13.01,2013-04-25 17:25:00,
2013-04-25 13:30:00,61.0,35.2,30.16,NW,319,1.0,3.0,38,0.00,,---,0.00,VWS V13.01,2013-04-25 17:30:00,
2013-04-25 13:35:00,61.3,33.4,30.16,North,5,2.0,8.0,35,0.00,,---,0.00,VWS V13.01,2013-04-25 17:35:00,
2013-04-25 13:40:00,61.7,36.5,30.16,WNW,302,4.0,6.0,39,0.00,,---,0.00,VWS V13.01,2013-04-25 17:40:00,
2013-04-25 13:45:00,61.8,36.0,30.17,NNW,328,0.0,3.0,38,0.00,,---,0.00,VWS V13.01,2013-04-25 17:45:00,
2013-04-25 13:50:00,61.9,34.7,30.17,NNE,16,6.0,6.0,36,0.00,,---,0.00,VWS V13.01,2013-04-25 17:50:00,
2013-04-25 13:55:00,62.2,35.6,30.17,NNW,329,0.0,1.0,37,0.00,,---,0.00,VWS V13.01,2013-04-25 17:55:00,
2013-04-25 14:00:00,62.4,36.5,30.17,WNW,298,0.0,2.0,38,0.00,,---,0.00,VWS V13.01,2013-04-25 18:00:00,
2013-04-25 14:05:00,62.5,35.2,30.16,North,5,2.0,5.0,36,0.00,,---,0.00,VWS V13.01,2013-04-25 18:05:00,
2013-04-25 14:10:00,62.5,34.5,30.16,North,351,3.0,4.0,35,0.00,,---,0.00,VWS V13.01,2013-04-25 18:10:00,
2013-04-25 14:15:00,62.8,35.5,30.16,WSW,257,2.0,2.0,36,0.00,,---,0.00,VWS V13.01,2013-04-25 18:15:00,
2013-04-25 14:20:00,63.1,36.4,30.16,WNW,300,3.0,4.0,37,0.00,,---,0.00,VWS V13.01,2013-04-25 18:20:00,
2013-04-25 14:25:00,63.1,34.3,30.16,NW,308,0.0,1.0,34,0.00,,---,0.00,VWS V13.01,2013-04-25 18:25:00,
2013-04-25 14:30:00,63.0,35.7,30.16,NE,37,4.0,6.0,36,0.00,,---,0.00,VWS V13.01,2013-04-25 18:30:00,
2013-04-25 14:35:00,62.9,41.3,30.17,East,90,4.0,6.0,45,0.00,,---,0.00,VWS V13.01,2013-04-25 18:35:00,
2013-04-25 14:40:00,62.3,40.1,30.17,South,172,6.0,11.0,44,0.00,,---,0.00,VWS V13.01,2013-04-25 18:40:00,
2013-04-25 14:45:00,62.0,43.2,30.17,South,175,0.0,2.0,50,0.00,,---,0.00,VWS V13.01,2013-04-25 18:45:00,
2013-04-25 14:50:00,61.4,41.6,30.17,South,184,4.0,12.0,48,0.00,,---,0.00,VWS V13.01,2013-04-25 18:50:00,
2013-04-25 14:55:00,61.3,43.5,30.17,South,170,10.0,10.0,52,0.00,,---,0.00,VWS V13.01,2013-04-25 18:55:00,
2013-04-25 15:00:00,61.0,43.8,30.17,SE,136,5.0,12.0,53,0.00,,---,0.00,VWS V13.01,2013-04-25 19:00:00,
2013-04-25 15:05:00,60.9,44.2,30.17,South,173,2.0,6.0,54,0.00,,---,0.00,VWS V13.01,2013-04-25 19:05:00,
2013-04-25 15:10:00,61.2,44.4,30.17,SE,140,10.0,11.0,54,0.00,,---,0.00,VWS V13.01,2013-04-25 19:10:00,
2013-04-25 15:15:00,61.0,43.3,30.17,SSE,165,2.0,5.0,52,0.00,,---,0.00,VWS V13.01,2013-04-25 19:15:00,
2013-04-25 15:20:00,60.6,43.4,30.17,South,185,5.0,6.0,53,0.00,,---,0.00,VWS V13.01,2013-04-25 19:20:00,
2013-04-25 15:25:00,60.0,43.3,30.17,SE,136,8.0,8.0,54,0.00,,---,0.00,VWS V13.01,2013-04-25 19:25:00,
2013-04-25 15:30:00,59.7,41.6,30.17,South,189,6.0,7.0,51,0.00,,---,0.00,VWS V13.01,2013-04-25 19:30:00,
2013-04-25 15:35:00,59.6,41.5,30.17,ESE,121,3.0,10.0,51,0.00,,---,0.00,VWS V13.01,2013-04-25 19:35:00,
2013-04-25 15:40:00,59.4,41.8,30.17,SE,138,2.0,5.0,52,0.00,,---,0.00,VWS V13.01,2013-04-25 19:40:00,
2013-04-25 15:45:00,59.2,40.6,30.17,South,190,7.0,7.0,50,0.00,,---,0.00,VWS V13.01,2013-04-25 19:45:00,
2013-04-25 15:50:00,59.0,41.9,30.17,ESE,117,2.0,11.0,53,0.00,,---,0.00,VWS V13.01,2013-04-25 19:50:00,
2013-04-25 15:55:00,59.0,43.3,30.17,ESE,121,5.0,9.0,56,0.00,,---,0.00,VWS V13.01,2013-04-25 19:55:00,
2013-04-25 16:00:00,59.2,44.0,30.17,SSE,160,4.0,6.0,57,0.00,,---,0.00,VWS V13.01,2013-04-25 20:00:00,
2013-04-25 16:05:00,59.5,43.8,30.17,SSE,159,3.0,8.0,56,0.00,,---,0.00,VWS V13.01,2013-04-25 20:05:00,
2013-04-25 16:10:00,59.6,43.0,30.17,SE,124,7.0,9.0,54,0.00,,---,0.00,VWS V13.01,2013-04-25 20:10:00,
2013-04-25 16:15:00,59.6,42.0,30.17,SE,142,0.0,4.0,52,0.00,,---,0.00,VWS V13.01,2013-04-25 20:15:00,
2013-04-25 16:20:00,59.6,43.0,30.17,SE,132,13.0,14.0,54,0.00,,---,0.00,VWS V13.01,2013-04-25 20:20:00,
2013-04-25 16:25:00,59.5,43.3,30.17,South,171,4.0,6.0,55,0.00,,---,0.00,VWS V13.01,2013-04-25 20:25:00,
2013-04-25 16:30:00,59.5,43.3,30.17,South,172,7.0,7.0,55,0.00,,---,0.00,VWS V13.01,2013-04-25 20:30:00,
2013-04-25 16:35:00,59.3,42.7,30.17,South,190,6.0,11.0,54,0.00,,---,0.00,VWS V13.01,2013-04-25 20:35:00,
2013-04-25 16:40:00,58.8,42.7,30.17,South,188,5.0,7.0,55,0.00,,---,0.00,VWS V13.01,2013-04-25 20:40:00,
2013-04-25 16:45:00,58.5,42.4,30.17,SSE,147,2.0,3.0,55,0.00,,---,0.00,VWS V13.01,2013-04-25 20:45:00,
2013-04-25 16:50:00,58.5,43.8,30.17,SE,124,3.0,6.0,58,0.00,,---,0.00,VWS V13.01,2013-04-25 20:50:00,
2013-04-25 16:55:00,58.7,43.1,30.17,South,184,3.0,9.0,56,0.00,,---,0.00,VWS V13.01,2013-04-25 20:55:00,
2013-04-25 17:00:00,58.6,43.4,30.17,South,182,3.0,9.0,57,0.00,,---,0.00,VWS V13.01,2013-04-25 21:00:00,
2013-04-25 17:05:00,58.5,42.9,30.17,SSE,162,4.0,6.0,56,0.00,,---,0.00,VWS V13.01,2013-04-25 21:05:00,
2013-04-25 17:10:00,58.3,42.7,30.17,SSE,167,5.0,5.0,56,0.00,,---,0.00,VWS V13.01,2013-04-25 21:10:00,
2013-04-25 17:15:00,58.4,41.8,30.17,SSE,159,5.0,7.0,54,0.00,,---,0.00,VWS V13.01,2013-04-25 21:15:00,
2013-04-25 17:20:00,58.4,41.8,30.17,SE,140,3.0,4.0,54,0.00,,---,0.00,VWS V13.01,2013-04-25 21:20:00,
2013-04-25 17:25:00,58.4,41.3,30.17,South,172,5.0,7.0,53,0.00,,---,0.00,VWS V13.01,2013-04-25 21:25:00,
2013-04-25 17:30:00,58.4,41.3,30.18,ESE,117,4.0,6.0,53,0.00,,---,0.00,VWS V13.01,2013-04-25 21:30:00,
2013-04-25 17:35:00,58.6,41.5,30.17,South,172,0.0,4.0,53,0.00,,---,0.00,VWS V13.01,2013-04-25 21:35:00,
2013-04-25 17:40:00,58.7,42.6,30.18,South,172,1.0,4.0,55,0.00,,---,0.00,VWS V13.01,2013-04-25 21:40:00,
2013-04-25 17:45:00,58.5,41.5,30.18,South,182,6.0,8.0,53,0.00,,---,0.00,VWS V13.01,2013-04-25 21:45:00,
2013-04-25 17:50:00,58.2,40.7,30.17,SSE,163,3.0,6.0,52,0.00,,---,0.00,VWS V13.01,2013-04-25 21:50:00,
2013-04-25 17:55:00,58.1,38.5,30.17,South,170,3.0,5.0,48,0.00,,---,0.00,VWS V13.01,2013-04-25 21:55:00,
2013-04-25 18:00:00,57.9,38.3,30.17,South,171,9.0,9.0,48,0.00,,---,0.00,VWS V13.01,2013-04-25 22:00:00,
2013-04-25 18:05:00,57.7,38.7,30.18,South,183,9.0,9.0,49,0.00,,---,0.00,VWS V13.01,2013-04-25 22:05:00,
2013-04-25 18:10:00,57.4,39.9,30.18,South,180,7.0,10.0,52,0.00,,---,0.00,VWS V13.01,2013-04-25 22:10:00,
2013-04-25 18:15:00,57.1,40.6,30.17,SW,215,4.0,6.0,54,0.00,,---,0.00,VWS V13.01,2013-04-25 22:15:00,
2013-04-25 18:20:00,56.7,41.7,30.18,South,180,4.0,5.0,57,0.00,,---,0.00,VWS V13.01,2013-04-25 22:20:00,
2013-04-25 18:25:00,56.4,40.9,30.18,South,178,5.0,6.0,56,0.00,,---,0.00,VWS V13.01,2013-04-25 22:25:00,
2013-04-25 18:30:00,56.1,41.1,30.18,South,181,3.0,4.0,57,0.00,,---,0.00,VWS V13.01,2013-04-25 22:30:00,
2013-04-25 18:35:00,55.8,40.8,30.18,South,185,4.0,6.0,57,0.00,,---,0.00,VWS V13.01,2013-04-25 22:35:00,
2013-04-25 18:40:00,55.7,40.3,30.19,South,189,4.0,7.0,56,0.00,,---,0.00,VWS V13.01,2013-04-25 22:40:00,
2013-04-25 18:45:00,55.6,40.2,30.19,SSW,205,3.0,4.0,56,0.00,,---,0.00,VWS V13.01,2013-04-25 22:45:00,
2013-04-25 18:50:00,55.5,39.1,30.19,SSW,202,10.0,10.0,54,0.00,,---,0.00,VWS V13.01,2013-04-25 22:50:00,
2013-04-25 18:55:00,55.4,38.6,30.19,South,188,3.0,5.0,53,0.00,,---,0.00,VWS V13.01,2013-04-25 22:55:00,
2013-04-25 19:00:00,55.2,38.9,30.19,SSW,204,2.0,3.0,54,0.00,,---,0.00,VWS V13.01,2013-04-25 23:00:00,
2013-04-25 19:05:00,55.1,39.2,30.19,South,178,6.0,6.0,55,0.00,,---,0.00,VWS V13.01,2013-04-25 23:05:00,
2013-04-25 19:10:00,55.0,39.2,30.19,SSW,199,3.0,5.0,55,0.00,,---,0.00,VWS V13.01,2013-04-25 23:10:00,
2013-04-25 19:15:00,54.8,39.4,30.19,SW,215,0.0,0.0,56,0.00,,---,0.00,VWS V13.01,2013-04-25 23:15:00,
2013-04-25 19:20:00,54.6,39.2,30.19,SSW,210,2.0,3.0,56,0.00,,---,0.00,VWS V13.01,2013-04-25 23:20:00,
2013-04-25 19:24:00,54.5,40.0,30.19,SSW,205,1.0,2.0,58,0.00,,---,0.00,VWS V13.01,2013-04-25 23:24:00,
2013-04-25 19:30:00,54.3,40.3,30.19,SSW,206,0.0,3.0,59,0.00,,---,0.00,VWS V13.01,2013-04-25 23:30:00,
2013-04-25 19:35:00,54.2,40.2,30.19,SSW,196,3.0,3.0,59,0.00,,---,0.00,VWS V13.01,2013-04-25 23:35:00,
2013-04-25 19:39:00,54.0,40.9,30.19,SSW,205,1.0,4.0,61,0.00,,---,0.00,VWS V13.01,2013-04-25 23:39:00,
2013-04-25 19:44:00,53.8,41.1,30.19,SSW,211,2.0,3.0,62,0.00,,---,0.00,VWS V13.01,2013-04-25 23:44:00,
2013-04-25 19:49:00,53.6,41.7,30.19,SSW,197,0.0,3.0,64,0.00,,---,0.00,VWS V13.01,2013-04-25 23:49:00,
2013-04-25 19:54:00,53.4,41.9,30.19,SSW,197,0.0,1.0,65,0.00,,---,0.00,VWS V13.01,2013-04-25 23:54:00,
2013-04-25 19:59:00,53.2,42.2,30.20,SSW,197,0.0,0.0,66,0.00,,---,0.00,VWS V13.01,2013-04-25 23:59:00,
2013-04-25 20:04:00,53.0,42.3,30.20,SSW,192,0.0,2.0,67,0.00,,---,0.00,VWS V13.01,2013-04-26 00:04:00,
2013-04-25 20:09:00,52.8,42.2,30.20,SSW,199,0.0,2.0,67,0.00,,---,0.00,VWS V13.01,2013-04-26 00:09:00,
2013-04-25 20:14:00,52.6,42.3,30.20,South,188,2.0,2.0,68,0.00,,---,0.00,VWS V13.01,2013-04-26 00:14:00,
2013-04-25 20:19:00,52.5,42.3,30.20,SSW,199,3.0,4.0,68,0.00,,---,0.00,VWS V13.01,2013-04-26 00:19:00,
2013-04-25 20:24:00,52.3,42.5,30.21,SW,217,3.0,4.0,69,0.00,,---,0.00,VWS V13.01,2013-04-26 00:24:00,
2013-04-25 20:29:00,52.3,42.5,30.21,SSW,208,0.0,0.0,69,0.00,,---,0.00,VWS V13.01,2013-04-26 00:29:00,
2013-04-25 20:34:00,52.1,42.2,30.21,SSW,211,2.0,2.0,69,0.00,,---,0.00,VWS V13.01,2013-04-26 00:34:00,
2013-04-25 20:39:00,52.1,42.6,30.21,SSW,211,1.0,2.0,70,0.00,,---,0.00,VWS V13.01,2013-04-26 00:39:00,
2013-04-25 20:44:00,51.9,42.4,30.21,SSW,211,1.0,2.0,70,0.00,,---,0.00,VWS V13.01,2013-04-26 00:44:00,
2013-04-25 20:49:00,51.8,42.3,30.22,SSW,212,0.0,2.0,70,0.00,,---,0.00,VWS V13.01,2013-04-26 00:49:00,
2013-04-25 20:54:00,51.7,42.6,30.22,SSW,212,0.0,0.0,71,0.00,,---,0.00,VWS V13.01,2013-04-26 00:54:00,
2013-04-25 20:59:00,51.6,42.9,30.22,South,178,0.0,0.0,72,0.00,,---,0.00,VWS V13.01,2013-04-26 00:59:00,
2013-04-25 21:04:00,51.5,42.8,30.22,SSW,196,1.0,2.0,72,0.00,,---,0.00,VWS V13.01,2013-04-26 01:04:00,
2013-04-25 21:09:00,51.4,43.0,30.23,SSW,196,2.0,3.0,73,0.00,,---,0.00,VWS V13.01,2013-04-26 01:09:00,
2013-04-25 21:14:00,51.2,42.9,30.23,SSW,196,3.0,4.0,73,0.00,,---,0.00,VWS V13.01,2013-04-26 01:14:00,
2013-04-25 21:19:00,51.0,42.7,30.23,SSW,196,0.0,0.0,73,0.00,,---,0.00,VWS V13.01,2013-04-26 01:19:00,
2013-04-25 21:24:00,50.9,42.9,30.23,South,175,0.0,0.0,74,0.00,,---,0.00,VWS V13.01,2013-04-26 01:24:00,
2013-04-25 21:29:00,50.7,43.1,30.24,South,175,0.0,1.0,75,0.00,,---,0.00,VWS V13.01,2013-04-26 01:29:00,
2013-04-25 21:34:00,50.6,43.0,30.24,South,175,0.0,0.0,75,0.00,,---,0.00,VWS V13.01,2013-04-26 01:34:00,
2013-04-25 21:39:00,50.5,43.2,30.24,South,175,0.0,0.0,76,0.00,,---,0.00,VWS V13.01,2013-04-26 01:39:00,
2013-04-25 21:44:00,50.4,43.1,30.24,South,175,0.0,0.0,76,0.00,,---,0.00,VWS V13.01,2013-04-26 01:44:00,
2013-04-25 21:49:00,50.3,43.0,30.24,South,185,0.0,0.0,76,0.00,,---,0.00,VWS V13.01,2013-04-26 01:49:00,
2013-04-25 21:54:00,50.2,42.9,30.24,South,185,1.0,2.0,76,0.00,,---,0.00,VWS V13.01,2013-04-26 01:54:00,
2013-04-25 21:59:00,50.1,43.2,30.24,South,185,3.0,3.0,77,0.00,,---,0.00,VWS V13.01,2013-04-26 01:59:00,
2013-04-25 22:04:00,50.0,43.1,30.24,South,185,1.0,1.0,77,0.00,,---,0.00,VWS V13.01,2013-04-26 02:04:00,
2013-04-25 22:09:00,49.9,43.0,30.24,South,185,0.0,0.0,77,0.00,,---,0.00,VWS V13.01,2013-04-26 02:09:00,
2013-04-25 22:14:00,49.8,43.2,30.24,South,185,2.0,3.0,78,0.00,,---,0.00,VWS V13.01,2013-04-26 02:14:00,
2013-04-25 22:19:00,49.7,43.1,30.24,South,185,2.0,2.0,78,0.00,,---,0.00,VWS V13.01,2013-04-26 02:19:00,
2013-04-25 22:24:00,49.6,43.4,30.25,South,185,0.0,0.0,79,0.00,,---,0.00,VWS V13.01,2013-04-26 02:24:00,
2013-04-25 22:29:00,49.5,43.3,30.25,South,185,0.0,0.0,79,0.00,,---,0.00,VWS V13.01,2013-04-26 02:29:00,
2013-04-25 22:34:00,49.4,43.2,30.25,South,185,0.0,1.0,79,0.00,,---,0.00,VWS V13.01,2013-04-26 02:34:00,
2013-04-25 22:39:00,49.3,43.4,30.25,SSW,196,2.0,2.0,80,0.00,,---,0.00,VWS V13.01,2013-04-26 02:39:00,
2013-04-25 22:44:00,49.2,43.3,30.25,SSW,196,2.0,4.0,80,0.00,,---,0.00,VWS V13.01,2013-04-26 02:44:00,
2013-04-25 22:49:00,49.2,43.3,30.25,SSW,196,0.0,0.0,80,0.00,,---,0.00,VWS V13.01,2013-04-26 02:49:00,
2013-04-25 22:54:00,49.1,43.2,30.25,SSW,196,0.0,0.0,80,0.00,,---,0.00,VWS V13.01,2013-04-26 02:54:00,
2013-04-25 22:59:00,49.0,43.1,30.25,SSW,196,0.0,0.0,80,0.00,,---,0.00,VWS V13.01,2013-04-26 02:59:00,
2013-04-25 23:04:00,48.9,43.0,30.24,SSW,196,1.0,1.0,80,0.00,,---,0.00,VWS V13.01,2013-04-26 03:04:00,
2013-04-25 23:09:00,48.8,42.9,30.24,SSW,196,0.0,1.0,80,0.00,,---,0.00,VWS V13.01,2013-04-26 03:09:00,
2013-04-25 23:14:00,48.7,42.8,30.25,SSW,196,0.0,0.0,80,0.00,,---,0.00,VWS V13.01,2013-04-26 03:14:00,
2013-04-25 23:19:00,48.6,42.7,30.25,SSW,196,0.0,0.0,80,0.00,,---,0.00,VWS V13.01,2013-04-26 03:19:00,
2013-04-25 23:24:00,48.5,42.6,30.25,SSW,196,0.0,0.0,80,0.00,,---,0.00,VWS V13.01,2013-04-26 03:24:00,
2013-04-25 23:29:00,48.4,42.5,30.25,SSW,196,0.0,0.0,80,0.00,,---,0.00,VWS V13.01,2013-04-26 03:29:00,
2013-04-25 23:34:00,48.3,42.4,30.25,SSW,196,0.0,0.0,80,0.00,,---,0.00,VWS V13.01,2013-04-26 03:34:00,
2013-04-25 23:39:00,48.2,42.7,30.25,SSW,196,0.0,0.0,81,0.00,,---,0.00,VWS V13.01,2013-04-26 03:39:00,
2013-04-25 23:44:00,48.1,42.5,30.25,SSW,196,0.0,0.0,81,0.00,,---,0.00,VWS V13.01,2013-04-26 03:44:00,
2013-04-25 23:49:00,47.9,42.4,30.25,SSW,196,0.0,0.0,81,0.00,,---,0.00,VWS V13.01,2013-04-26 03:49:00,
2013-04-25 23:54:00,47.7,42.2,30.25,SSW,196,0.0,0.0,81,0.00,,---,0.00,VWS V13.01,2013-04-26 03:54:00,
2013-04-25 23:59:00,47.4,41.9,30.25,SSW,196,0.0,0.0,81,0.00,,---,0.00,VWS V13.01,2013-04-26 03:59:00,